Regional Weather Roundup
Issued by NWS Midland/Odessa, TX

Skip options and go directly to product.
Home | Oldest Version | Next Version | Current Version | All | Text Only | Save Text | Print | Product List | Glossary On

Skip product version selection by date and time.   
968
ASUS44 KMAF 011910
RWRMAF
MIDLAND AREA WEATHER ROUNDUP
NATIONAL WEATHER SERVICE MIDLAND TX
200 PM CDT MON SEP 01 2014

...IN SOUTHWEST TEXAS AND SOUTHEAST NEW MEXICO...

CITY           SKY/WX    TMP DP  RH WIND       PRES   REMARKS
ALPINE         SUNNY     95  46  18 E8        30.10F
ANDREWS        FAIR      98  49  19 SW5       29.92F
ARTESIA        NOT AVBL
BIG SPRING     SUNNY     97  62  31 S15       29.92F
CARLSBAD       SUNNY     99  37  11 N5G16     29.92F
DRYDEN           N/A     98  63  31 VRB6      29.89F HX 100
FORT STOCKTON  SUNNY    101  46  15 VRB3      29.92F
GUAD PASS      SUNNY     93  42  17 W24G31    30.13F
HOBBS          SUNNY     97  41  14 W7        29.96F
MARFA          PTSUNNY   90  46  22 CALM      30.11F
MIDLAND AIRPK  NOT AVBL
MIDLAND INTL   SUNNY     98  58  26 S9        29.90F
ODESSA         SUNNY     97  54  23 SW8       29.92F
PECOS          SUNNY    101  49  17 NE5G20    29.87F
PRESIDIO       FAIR      97  55  24 CALM      29.93F
SEMINOLE       SUNNY     98  47  17 W6        29.93F
SNYDER         SUNNY     95  67  39 S15G22    29.89F
WINK           SUNNY    101  43  13 CALM      29.88F
$$
...OTHER STATIONS IN TEXAS...

CITY           SKY/WX    TMP DP  RH WIND       PRES   REMARKS
ABILENE        SUNNY     97  65  34 S18       29.88F
AMARILLO       SUNNY     87  59  38 NE7       29.95F
AUSTIN         MOSUNNY   97  68  38 S15G21    29.90F HX 102
BROWNSVILLE    MOSUNNY   92  76  59 E14       29.89F HX 104
CORPUS CHRISTI PTSUNNY   90  76  63 SE16G24   29.90F HX 101
DALLAS FTW     MOSUNNY   94  71  47 S15G24    29.89F HX 101
DEL RIO        SUNNY     96  69  41 S15G22    29.85F HX 102
EL PASO        MOSUNNY   95  38  13 W14G23    30.01F
HOUSTON INT    LGT RAIN  81  75  83 CALM      29.95F
LUBBOCK        SUNNY     96  56  26 SW9       29.91F
SAN ANGELO     SUNNY     96  64  34 S15       29.88F
SAN ANTONIO    PTSUNNY   96  68  39 S10G20    29.91F HX 101
WACO           MOSUNNY   95  68  41 S17G24    29.90F
WICHITA FALLS  NOT AVBL
$$
...OTHER LOCATIONS IN NEW MEXICO...

CITY           SKY/WX    TMP DP  RH WIND       PRES   REMARKS
ALAMAGORDO     SUNNY     93  39  15 W7        30.03F
ALBUQUERQUE    MOSUNNY   85  38  18 VRB5      30.11F
CANNON AFB     SUNNY     89  50  25 VRB5      29.99F
CLOVIS           N/A     90  50  25 CALM      30.01F
HOLLOMAN AFB   SUNNY     94  37  13 VRB3      30.00F
ROSWELL        SUNNY     96  45  17 E9        29.95F
RUIDOSO        SUNNY     81  39  22 NE7       30.24F
SANTA FE       SUNNY     83  35  18 W12       30.14F
TRUTH OR CONSE SUNNY     90  38  16 E7        30.06F
TUCUMCARI      SUNNY     88  51  28 CALM      29.97F
$$

USA.gov is the U.S. government's official web portal to all federal, state and local government web resources and services.